iso_date,epoch_date,Year,Hour,Min,DOY,POS_DOY,Lat,Lon,BP,Ts,Ta,has_bp,has_ts,has_ta,BuoyID,Buoy_Type,Buoy_Owner,Logistics,Hemisphere
2020-07-06T18:00:00Z,1594058400,2020,18,0,188.75,188.75,-62.435,171.377,989.4,1.26,-999.0,yes,yes,no,300234066330820,BD2GI,AOML,UNKNOWN,South
2020-07-06T19:00:02Z,1594062003,2020,19,0,188.7917,188.7917,-62.436,171.396,988.9,1.43,-999.0,yes,yes,no,300234066330820,BD2GI,AOML,UNKNOWN,South
2020-07-06T19:59:57Z,1594065597,2020,20,0,188.8333,188.8333,-62.435,171.418,988.7,1.4,-999.0,yes,yes,no,300234066330820,BD2GI,AOML,UNKNOWN,South
2020-07-06T21:00:00Z,1594069200,2020,21,0,188.875,188.875,-62.434,171.44,988.7,1.38,-999.0,yes,yes,no,300234066330820,BD2GI,AOML,UNKNOWN,South
2020-07-06T22:00:02Z,1594072803,2020,22,0,188.9167,188.9167,-62.433,171.459,988.7,1.37,-999.0,yes,yes,no,300234066330820,BD2GI,AOML,UNKNOWN,South
2020-07-06T22:59:57Z,1594076397,2020,23,0,188.9583,188.9583,-62.431,171.477,988.9,1.37,-999.0,yes,yes,no,300234066330820,BD2GI,AOML,UNKNOWN,South
2020-07-07T00:00:00Z,1594080000,2020,0,0,189.0,189.0,-62.43,171.495,988.6,1.38,-999.0,yes,yes,no,300234066330820,BD2GI,AOML,UNKNOWN,South
2020-07-07T01:00:02Z,1594083603,2020,1,0,189.0417,189.0417,-62.428,171.512,988.1,1.37,-999.0,yes,yes,no,300234066330820,BD2GI,AOML,UNKNOWN,South
2020-07-07T01:59:57Z,1594087197,2020,2,0,189.0833,189.0833,-62.427,171.53,987.7,1.38,-999.0,yes,yes,no,300234066330820,BD2GI,AOML,UNKNOWN,South
2020-07-07T03:00:00Z,1594090800,2020,3,0,189.125,189.125,-62.426,171.549,987.6,1.39,-999.0,yes,yes,no,300234066330820,BD2GI,AOML,UNKNOWN,South
2020-07-07T04:00:02Z,1594094403,2020,4,0,189.1667,189.1667,-62.426,171.572,987.9,1.38,-999.0,yes,yes,no,300234066330820,BD2GI,AOML,UNKNOWN,South
2020-07-07T04:59:57Z,1594097997,2020,5,0,189.2083,189.2083,-62.425,171.6,987.8,1.39,-999.0,yes,yes,no,300234066330820,BD2GI,AOML,UNKNOWN,South
2020-07-07T06:00:00Z,1594101600,2020,6,0,189.25,189.25,-62.423,171.627,987.9,1.39,-999.0,yes,yes,no,300234066330820,BD2GI,AOML,UNKNOWN,South
2020-07-07T07:00:02Z,1594105203,2020,7,0,189.2917,189.2917,-62.421,171.656,988.2,1.39,-999.0,yes,yes,no,300234066330820,BD2GI,AOML,UNKNOWN,South
2020-07-07T07:59:57Z,1594108797,2020,8,0,189.3333,189.3333,-62.42,171.684,988.3,1.39,-999.0,yes,yes,no,300234066330820,BD2GI,AOML,UNKNOWN,South
2020-07-07T09:00:00Z,1594112400,2020,9,0,189.375,189.375,-62.419,171.713,988.6,1.39,-999.0,yes,yes,no,300234066330820,BD2GI,AOML,UNKNOWN,South
2020-07-07T10:00:02Z,1594116003,2020,10,0,189.4167,189.4167,-62.419,171.741,988.9,1.39,-999.0,yes,yes,no,300234066330820,BD2GI,AOML,UNKNOWN,South
2020-07-07T10:59:57Z,1594119597,2020,11,0,189.4583,189.4583,-62.42,171.767,989.2,1.38,-999.0,yes,yes,no,300234066330820,BD2GI,AOML,UNKNOWN,South
2020-07-07T12:00:00Z,1594123200,2020,12,0,189.5,189.5,-62.422,171.793,989.7,1.37,-999.0,yes,yes,no,300234066330820,BD2GI,AOML,UNKNOWN,South
2020-07-07T13:00:02Z,1594126803,2020,13,0,189.5417,189.5417,-62.424,171.82,989.7,1.35,-999.0,yes,yes,no,300234066330820,BD2GI,AOML,UNKNOWN,South
2020-07-07T13:59:57Z,1594130397,2020,14,0,189.5833,189.5833,-62.425,171.846,989.8,1.36,-999.0,yes,yes,no,300234066330820,BD2GI,AOML,UNKNOWN,South
2020-07-07T15:00:00Z,1594134000,2020,15,0,189.625,189.625,-62.426,171.874,990.1,1.34,-999.0,yes,yes,no,300234066330820,BD2GI,AOML,UNKNOWN,South
2020-07-07T16:00:02Z,1594137603,2020,16,0,189.6667,189.6667,-62.428,171.902,990.5,1.33,-999.0,yes,yes,no,300234066330820,BD2GI,AOML,UNKNOWN,South
2020-07-07T16:59:57Z,1594141197,2020,17,0,189.7083,189.7083,-62.429,171.932,990.8,1.34,-999.0,yes,yes,no,300234066330820,BD2GI,AOML,UNKNOWN,South
2020-07-07T18:00:00Z,1594144800,2020,18,0,189.75,189.75,-62.429,171.962,991.1,1.33,-999.0,yes,yes,no,300234066330820,BD2GI,AOML,UNKNOWN,South
2020-07-07T19:00:02Z,1594148403,2020,19,0,189.7917,189.7917,-62.427,171.993,991.7,1.32,-999.0,yes,yes,no,300234066330820,BD2GI,AOML,UNKNOWN,South
2020-07-07T19:59:57Z,1594151997,2020,20,0,189.8333,189.8333,-62.426,172.021,992.0,1.33,-999.0,yes,yes,no,300234066330820,BD2GI,AOML,UNKNOWN,South
2020-07-07T21:00:00Z,1594155600,2020,21,0,189.875,189.875,-62.423,172.05,992.4,1.32,-999.0,yes,yes,no,300234066330820,BD2GI,AOML,UNKNOWN,South
2020-07-07T22:00:02Z,1594159203,2020,22,0,189.9167,189.9167,-62.42,172.078,993.0,1.29,-999.0,yes,yes,no,300234066330820,BD2GI,AOML,UNKNOWN,South
2020-07-07T22:59:57Z,1594162797,2020,23,0,189.9583,189.9583,-62.416,172.105,993.2,1.31,-999.0,yes,yes,no,300234066330820,BD2GI,AOML,UNKNOWN,South
2020-07-08T00:00:00Z,1594166400,2020,0,0,190.0,190.0,-62.414,172.133,993.0,1.32,-999.0,yes,yes,no,300234066330820,BD2GI,AOML,UNKNOWN,South
2020-07-08T01:00:02Z,1594170003,2020,1,0,190.0417,190.0417,-62.413,172.165,993.0,1.31,-999.0,yes,yes,no,300234066330820,BD2GI,AOML,UNKNOWN,South
2020-07-08T01:59:57Z,1594173597,2020,2,0,190.0833,190.0833,-62.412,172.201,992.7,1.32,-999.0,yes,yes,no,300234066330820,BD2GI,AOML,UNKNOWN,South
2020-07-08T03:00:00Z,1594177200,2020,3,0,190.125,190.125,-62.411,172.24,992.7,1.31,-999.0,yes,yes,no,300234066330820,BD2GI,AOML,UNKNOWN,South
2020-07-08T04:00:02Z,1594180803,2020,4,0,190.1667,190.1667,-62.41,172.283,992.5,1.31,-999.0,yes,yes,no,300234066330820,BD2GI,AOML,UNKNOWN,South
2020-07-08T04:59:57Z,1594184397,2020,5,0,190.2083,190.2083,-62.409,172.327,992.2,1.29,-999.0,yes,yes,no,300234066330820,BD2GI,AOML,UNKNOWN,South
2020-07-08T06:00:00Z,1594188000,2020,6,0,190.25,190.25,-62.407,172.376,991.7,1.45,-999.0,yes,yes,no,300234066330820,BD2GI,AOML,UNKNOWN,South
2020-07-08T07:00:02Z,1594191603,2020,7,0,190.2917,190.2917,-62.406,172.428,991.2,1.55,-999.0,yes,yes,no,300234066330820,BD2GI,AOML,UNKNOWN,South
2020-07-08T07:59:57Z,1594195197,2020,8,0,190.3333,190.3333,-62.406,172.482,990.7,1.83,-999.0,yes,yes,no,300234066330820,BD2GI,AOML,UNKNOWN,South
2020-07-08T09:00:00Z,1594198800,2020,9,0,190.375,190.375,-62.406,172.536,990.1,1.83,-999.0,yes,yes,no,300234066330820,BD2GI,AOML,UNKNOWN,South
2020-07-08T10:00:02Z,1594202403,2020,10,0,190.4167,190.4167,-62.407,172.589,989.0,1.59,-999.0,yes,yes,no,300234066330820,BD2GI,AOML,UNKNOWN,South
2020-07-08T10:59:57Z,1594205997,2020,11,0,190.4583,190.4583,-62.409,172.639,988.7,1.63,-999.0,yes,yes,no,300234066330820,BD2GI,AOML,UNKNOWN,South
2020-07-08T12:00:00Z,1594209600,2020,12,0,190.5,190.5,-62.411,172.688,988.0,1.41,-999.0,yes,yes,no,300234066330820,BD2GI,AOML,UNKNOWN,South
2020-07-08T13:00:02Z,1594213203,2020,13,0,190.5417,190.5417,-62.414,172.739,986.7,1.35,-999.0,yes,yes,no,300234066330820,BD2GI,AOML,UNKNOWN,South
2020-07-08T13:59:57Z,1594216797,2020,14,0,190.5833,190.5833,-62.418,172.791,985.4,1.36,-999.0,yes,yes,no,300234066330820,BD2GI,AOML,UNKNOWN,South
2020-07-08T15:00:00Z,1594220400,2020,15,0,190.625,190.625,-62.424,172.844,984.1,1.36,-999.0,yes,yes,no,300234066330820,BD2GI,AOML,UNKNOWN,South
2020-07-08T16:00:02Z,1594224003,2020,16,0,190.6667,190.6667,-62.427,172.898,983.1,1.36,-999.0,yes,yes,no,300234066330820,BD2GI,AOML,UNKNOWN,South
2020-07-08T16:59:57Z,1594227597,2020,17,0,190.7083,190.7083,-62.429,172.955,983.0,1.34,-999.0,yes,yes,no,300234066330820,BD2GI,AOML,UNKNOWN,South
2020-07-08T18:00:00Z,1594231200,2020,18,0,190.75,190.75,-62.429,173.015,984.4,1.33,-999.0,yes,yes,no,300234066330820,BD2GI,AOML,UNKNOWN,South
2020-07-08T19:00:02Z,1594234803,2020,19,0,190.7917,190.7917,-62.427,173.071,985.4,1.33,-999.0,yes,yes,no,300234066330820,BD2GI,AOML,UNKNOWN,South
2020-07-08T19:59:57Z,1594238397,2020,20,0,190.8333,190.8333,-62.425,173.126,986.0,1.33,-999.0,yes,yes,no,300234066330820,BD2GI,AOML,UNKNOWN,South
2020-07-08T21:00:00Z,1594242000,2020,21,0,190.875,190.875,-62.426,173.172,986.6,1.34,-999.0,yes,yes,no,300234066330820,BD2GI,AOML,UNKNOWN,South
2020-07-08T22:00:02Z,1594245603,2020,22,0,190.9167,190.9167,-62.428,173.215,987.8,1.39,-999.0,yes,yes,no,300234066330820,BD2GI,AOML,UNKNOWN,South
2020-07-08T22:59:57Z,1594249197,2020,23,0,190.9583,190.9583,-62.431,173.258,987.8,1.45,-999.0,yes,yes,no,300234066330820,BD2GI,AOML,UNKNOWN,South
2020-07-09T00:00:00Z,1594252800,2020,0,0,191.0,191.0,-62.437,173.297,987.5,1.47,-999.0,yes,yes,no,300234066330820,BD2GI,AOML,UNKNOWN,South
2020-07-09T01:00:02Z,1594256403,2020,1,0,191.0417,191.0417,-62.445,173.332,986.7,1.48,-999.0,yes,yes,no,300234066330820,BD2GI,AOML,UNKNOWN,South
2020-07-09T01:59:57Z,1594259997,2020,2,0,191.0833,191.0833,-62.457,173.367,986.0,1.49,-999.0,yes,yes,no,300234066330820,BD2GI,AOML,UNKNOWN,South
2020-07-09T03:00:00Z,1594263600,2020,3,0,191.125,191.125,-62.471,173.409,985.5,1.51,-999.0,yes,yes,no,300234066330820,BD2GI,AOML,UNKNOWN,South
2020-07-09T04:00:02Z,1594267203,2020,4,0,191.1667,191.1667,-62.485,173.449,984.6,1.52,-999.0,yes,yes,no,300234066330820,BD2GI,AOML,UNKNOWN,South
2020-07-09T04:59:57Z,1594270797,2020,5,0,191.2083,191.2083,-62.5,173.494,983.7,1.52,-999.0,yes,yes,no,300234066330820,BD2GI,AOML,UNKNOWN,South
2020-07-09T06:00:00Z,1594274400,2020,6,0,191.25,191.25,-62.513,173.539,982.6,1.52,-999.0,yes,yes,no,300234066330820,BD2GI,AOML,UNKNOWN,South
2020-07-09T07:00:02Z,1594278003,2020,7,0,191.2917,191.2917,-62.527,173.586,982.1,1.49,-999.0,yes,yes,no,300234066330820,BD2GI,AOML,UNKNOWN,South
2020-07-09T07:59:57Z,1594281597,2020,8,0,191.3333,191.3333,-62.538,173.627,981.1,1.5,-999.0,yes,yes,no,300234066330820,BD2GI,AOML,UNKNOWN,South
2020-07-09T09:00:00Z,1594285200,2020,9,0,191.375,191.375,-62.548,173.666,979.7,1.5,-999.0,yes,yes,no,300234066330820,BD2GI,AOML,UNKNOWN,South
2020-07-09T10:00:02Z,1594288803,2020,10,0,191.4167,191.4167,-62.557,173.697,978.7,1.5,-999.0,yes,yes,no,300234066330820,BD2GI,AOML,UNKNOWN,South
2020-07-09T10:59:57Z,1594292397,2020,11,0,191.4583,191.4583,-62.567,173.724,978.0,1.5,-999.0,yes,yes,no,300234066330820,BD2GI,AOML,UNKNOWN,South
2020-07-09T12:00:00Z,1594296000,2020,12,0,191.5,191.5,-62.577,173.746,977.9,1.48,-999.0,yes,yes,no,300234066330820,BD2GI,AOML,UNKNOWN,South
2020-07-09T13:00:02Z,1594299603,2020,13,0,191.5417,191.5417,-62.588,173.766,977.0,1.46,-999.0,yes,yes,no,300234066330820,BD2GI,AOML,UNKNOWN,South
2020-07-09T13:59:57Z,1594303197,2020,14,0,191.5833,191.5833,-62.599,173.783,977.3,1.42,-999.0,yes,yes,no,300234066330820,BD2GI,AOML,UNKNOWN,South
2020-07-09T15:00:00Z,1594306800,2020,15,0,191.625,191.625,-62.612,173.795,977.2,1.42,-999.0,yes,yes,no,300234066330820,BD2GI,AOML,UNKNOWN,South
2020-07-09T16:00:02Z,1594310403,2020,16,0,191.6667,191.6667,-62.627,173.811,977.2,1.4,-999.0,yes,yes,no,300234066330820,BD2GI,AOML,UNKNOWN,South
2020-07-09T16:59:57Z,1594313997,2020,17,0,191.7083,191.7083,-62.641,173.831,977.7,1.35,-999.0,yes,yes,no,300234066330820,BD2GI,AOML,UNKNOWN,South
2020-07-09T18:00:00Z,1594317600,2020,18,0,191.75,191.75,-62.656,173.855,977.4,1.33,-999.0,yes,yes,no,300234066330820,BD2GI,AOML,UNKNOWN,South
2020-07-09T19:00:02Z,1594321203,2020,19,0,191.7917,191.7917,-62.671,173.88,977.1,1.32,-999.0,yes,yes,no,300234066330820,BD2GI,AOML,UNKNOWN,South
2020-07-09T19:59:57Z,1594324797,2020,20,0,191.8333,191.8333,-62.684,173.907,976.5,1.31,-999.0,yes,yes,no,300234066330820,BD2GI,AOML,UNKNOWN,South
2020-07-09T21:00:00Z,1594328400,2020,21,0,191.875,191.875,-62.696,173.928,975.9,1.26,-999.0,yes,yes,no,300234066330820,BD2GI,AOML,UNKNOWN,South
2020-07-09T22:00:02Z,1594332003,2020,22,0,191.9167,191.9167,-62.71,173.948,975.5,1.4,-999.0,yes,yes,no,300234066330820,BD2GI,AOML,UNKNOWN,South
2020-07-09T22:59:57Z,1594335597,2020,23,0,191.9583,191.9583,-62.722,173.972,974.4,1.31,-999.0,yes,yes,no,300234066330820,BD2GI,AOML,UNKNOWN,South
2020-07-10T00:00:00Z,1594339200,2020,0,0,192.0,192.0,-62.733,173.991,973.6,1.28,-999.0,yes,yes,no,300234066330820,BD2GI,AOML,UNKNOWN,South
2020-07-10T01:00:02Z,1594342803,2020,1,0,192.0417,192.0417,-62.745,174.01,973.3,1.27,-999.0,yes,yes,no,300234066330820,BD2GI,AOML,UNKNOWN,South
2020-07-10T01:59:57Z,1594346397,2020,2,0,192.0833,192.0833,-62.754,174.026,973.0,1.26,-999.0,yes,yes,no,300234066330820,BD2GI,AOML,UNKNOWN,South
2020-07-10T03:00:00Z,1594350000,2020,3,0,192.125,192.125,-62.763,174.041,972.8,1.24,-999.0,yes,yes,no,300234066330820,BD2GI,AOML,UNKNOWN,South
2020-07-10T04:00:02Z,1594353603,2020,4,0,192.1667,192.1667,-62.771,174.054,972.4,1.24,-999.0,yes,yes,no,300234066330820,BD2GI,AOML,UNKNOWN,South
2020-07-10T04:59:57Z,1594357197,2020,5,0,192.2083,192.2083,-62.781,174.064,972.0,1.24,-999.0,yes,yes,no,300234066330820,BD2GI,AOML,UNKNOWN,South
2020-07-10T06:00:00Z,1594360800,2020,6,0,192.25,192.25,-62.791,174.075,971.8,1.21,-999.0,yes,yes,no,300234066330820,BD2GI,AOML,UNKNOWN,South
2020-07-10T07:00:02Z,1594364403,2020,7,0,192.2917,192.2917,-62.804,174.089,971.0,1.21,-999.0,yes,yes,no,300234066330820,BD2GI,AOML,UNKNOWN,South
2020-07-10T07:59:57Z,1594367997,2020,8,0,192.3333,192.3333,-62.817,174.106,970.6,1.21,-999.0,yes,yes,no,300234066330820,BD2GI,AOML,UNKNOWN,South
2020-07-10T09:00:00Z,1594371600,2020,9,0,192.375,192.375,-62.829,174.126,970.0,1.11,-999.0,yes,yes,no,300234066330820,BD2GI,AOML,UNKNOWN,South
2020-07-10T10:00:02Z,1594375203,2020,10,0,192.4167,192.4167,-62.84,174.144,969.7,1.15,-999.0,yes,yes,no,300234066330820,BD2GI,AOML,UNKNOWN,South
2020-07-10T10:59:57Z,1594378797,2020,11,0,192.4583,192.4583,-62.851,174.163,968.8,1.15,-999.0,yes,yes,no,300234066330820,BD2GI,AOML,UNKNOWN,South
2020-07-10T12:00:00Z,1594382400,2020,12,0,192.5,192.5,-62.861,174.182,968.1,1.13,-999.0,yes,yes,no,300234066330820,BD2GI,AOML,UNKNOWN,South
2020-07-10T13:00:02Z,1594386003,2020,13,0,192.5417,192.5417,-62.863,174.206,960.6,0.04,-999.0,yes,yes,no,300234066330820,BD2GI,AOML,UNKNOWN,South
2020-07-10T13:59:57Z,1594389597,2020,14,0,192.5833,192.5833,-62.866,174.228,955.3,0.17,-999.0,yes,yes,no,300234066330820,BD2GI,AOML,UNKNOWN,South
2020-07-10T15:00:00Z,1594393200,2020,15,0,192.625,192.625,-62.869,174.248,955.1,0.47,-999.0,yes,yes,no,300234066330820,BD2GI,AOML,UNKNOWN,South
2020-07-10T16:00:02Z,1594396803,2020,16,0,192.6667,192.6667,-62.871,174.279,955.2,0.86,-999.0,yes,yes,no,300234066330820,BD2GI,AOML,UNKNOWN,South
2020-07-10T16:59:57Z,1594400397,2020,17,0,192.7083,192.7083,-62.869,174.31,957.0,0.53,-999.0,yes,yes,no,300234066330820,BD2GI,AOML,UNKNOWN,South
2020-07-10T18:00:00Z,1594404000,2020,18,0,192.75,192.75,-62.864,174.333,954.8,-0.13,-999.0,yes,yes,no,300234066330820,BD2GI,AOML,UNKNOWN,South
2020-07-10T19:00:02Z,1594407603,2020,19,0,192.7917,192.7917,-62.859,174.353,955.0,-0.29,-999.0,yes,yes,no,300234066330820,BD2GI,AOML,UNKNOWN,South
2020-07-10T19:59:57Z,1594411197,2020,20,0,192.8333,192.8333,-62.851,174.37,957.0,-0.49,-999.0,yes,yes,no,300234066330820,BD2GI,AOML,UNKNOWN,South
2020-07-10T21:00:00Z,1594414800,2020,21,0,192.875,192.875,-62.845,174.387,956.4,0.13,-999.0,yes,yes,no,300234066330820,BD2GI,AOML,UNKNOWN,South
2020-07-10T22:00:02Z,1594418403,2020,22,0,192.9167,192.9167,-62.841,174.409,957.0,-0.16,-999.0,yes,yes,no,300234066330820,BD2GI,AOML,UNKNOWN,South
2020-07-10T22:59:57Z,1594421997,2020,23,0,192.9583,192.9583,-62.838,174.434,956.6,-0.38,-999.0,yes,yes,no,300234066330820,BD2GI,AOML,UNKNOWN,South
2020-07-11T00:00:00Z,1594425600,2020,0,0,193.0,193.0,-62.835,174.462,959.7,-0.01,-999.0,yes,yes,no,300234066330820,BD2GI,AOML,UNKNOWN,South
